| time (UTC) | temp C | wind direction | speed KPH | gust KPH | rain 1hr cm | rain 24hr cm | rain mn cm | humidity % | barometer mb |
| 20260506212637 | 6 | 3 | 0.0 | 1.6 | 0.00 | 3.96 | 2.64 | 99 | 1006.7 |
| 20260506205636 | 6 | 8 | 1.6 | 3.2 | 0.00 | 3.94 | 2.62 | 99 | 1006.7 |
| 20260506202637 | 6 | 340 | 1.6 | 3.2 | 0.00 | 3.86 | 2.54 | 99 | 1006.4 |
| 20260506195637 | 6 | 345 | 0.0 | 0.0 | 0.00 | 3.84 | 2.51 | 99 | 1006.0 |
| 20260506192636 | 6 | 340 | 4.8 | 4.8 | 0.00 | 3.84 | 2.51 | 99 | 1005.7 |
| 20260506185636 | 7 | 356 | 3.2 | 4.8 | 0.00 | 3.81 | 2.49 | 99 | 1005.7 |
| 20260506182727 | 7 | 16 | 0.0 | 0.0 | 0.00 | 3.81 | 2.49 | 99 | 1005.4 |
| 20260506182637 | 7 | 16 | 0.0 | 0.0 | 0.00 | 3.81 | 2.49 | 99 | 1005.4 |
| 20260506175637 | 7 | 359 | 3.2 | 4.8 | 0.00 | 3.78 | 2.46 | 99 | 1005.4 |
| 20260506172637 | 7 | 1 | 4.8 | 6.4 | 0.00 | 3.76 | 2.44 | 99 | 1005.4 |
| 20260506165637 | 7 | 13 | 0.0 | 0.0 | 0.00 | 3.76 | 2.44 | 99 | 1005.0 |
| 20260506162637 | 7 | 1 | 1.6 | 3.2 | 0.00 | 3.76 | 2.44 | 99 | 1005.0 |
| 20260506155636 | 7 | 357 | 0.0 | 1.6 | 0.00 | 3.73 | 2.41 | 99 | 1005.0 |
| 20260506152637 | 7 | 27 | 0.0 | 1.6 | 0.00 | 3.73 | 2.41 | 99 | 1005.0 |
| 20260506145637 | 7 | 30 | 0.0 | 1.6 | 0.00 | 3.73 | 2.41 | 99 | 1005.0 |
| 20260506142637 | 7 | 23 | 0.0 | 0.0 | 0.00 | 3.73 | 2.41 | 99 | 1004.7 |
| 20260506135637 | 7 | 5 | 1.6 | 3.2 | 0.00 | 3.71 | 2.39 | 99 | 1005.0 |
| 20260506132636 | 7 | 355 | 3.2 | 4.8 | 0.00 | 3.68 | 2.36 | 99 | 1004.7 |
| 20260506125637 | 7 | 0 | 3.2 | 6.4 | 0.00 | 3.68 | 2.36 | 99 | 1004.4 |
| 20260506122636 | 6 | 3 | 8.0 | 8.0 | 0.00 | 3.68 | 2.36 | 99 | 1004.4 |
| 20260506115637 | 6 | 5 | 3.2 | 4.8 | 0.00 | 3.68 | 2.36 | 99 | 1004.4 |
| 20260506112636 | 6 | 7 | 1.6 | 3.2 | 0.00 | 3.68 | 2.36 | 99 | 1004.4 |
| 20260506105637 | 6 | 25 | 4.8 | 6.4 | 0.00 | 3.68 | 2.36 | 99 | 1004.0 |
| 20260506102637 | 6 | 14 | 3.2 | 4.8 | 0.00 | 3.68 | 2.36 | 99 | 1003.7 |
| 20260506095637 | 7 | 43 | 0.0 | 1.6 | 0.00 | 3.66 | 2.34 | 99 | 1003.3 |
| 20260506092636 | 7 | 25 | 0.0 | 3.2 | 0.00 | 3.66 | 2.34 | 99 | 1003.3 |
| 20260506085637 | 6 | 20 | 4.8 | 6.4 | 0.00 | 3.58 | 2.26 | 99 | 1003.3 |
| 20260506082637 | 6 | 28 | 6.4 | 8.0 | 0.00 | 3.40 | 2.08 | 99 | 1003.0 |
| 20260506072636 | 7 | 25 | 4.8 | 6.4 | 0.00 | 3.20 | 1.88 | 99 | 1003.0 |
| 20260506043351 | 8 | 39 | 1.6 | 4.8 | 0.00 | 2.77 | 1.42 | 99 | 1003.0 |
| 20260506042637 | 8 | 39 | 1.6 | 4.8 | 0.00 | 2.77 | 1.42 | 99 | 1003.0 |
| 20260506035637 | 8 | 32 | 0.0 | 0.0 | 0.00 | 2.64 | 1.32 | 99 | 1003.0 |
| 20260506032714 | 8 | 39 | 0.0 | 1.6 | 0.00 | 2.51 | 1.19 | 99 | 1003.7 |
| 20260506032637 | 8 | 39 | 0.0 | 1.6 | 0.00 | 2.51 | 1.19 | 99 | 1003.7 |
| 20260506025740 | 8 | 38 | 0.0 | 1.6 | 0.00 | 2.34 | 1.02 | 99 | 1003.7 |
| 20260506025637 | 8 | 38 | 0.0 | 1.6 | 0.00 | 2.34 | 1.02 | 99 | 1003.7 |
| 20260506022638 | 8 | 31 | 0.0 | 0.0 | 0.00 | 2.18 | 0.86 | 99 | 1004.0 |
| 20260506015637 | 8 | 39 | 0.0 | 0.0 | 0.00 | 2.06 | 0.71 | 99 | 1004.0 |
| 20260506012637 | 8 | 25 | 0.0 | 0.0 | 0.00 | 1.88 | 0.56 | 99 | 1004.4 |
| 20260506005637 | 8 | 37 | 0.0 | 1.6 | 0.00 | 1.78 | 0.46 | 99 | 1004.4 |
| 20260506002637 | 8 | 46 | 0.0 | 0.0 | 0.00 | 1.63 | 0.30 | 99 | 1004.7 |
| 20260505235637 | 8 | 42 | 1.6 | 3.2 | 0.00 | 1.50 | 0.18 | 99 | 1005.0 |
| 20260505232637 | 8 | 31 | 0.0 | 3.2 | 0.00 | 1.40 | 0.08 | 99 | 1005.0 |
| 20260505225637 | 9 | 60 | 0.0 | 3.2 | 0.00 | 1.35 | 0.03 | 99 | 1005.0 |
| 20260505222637 | 9 | 39 | 1.6 | 3.2 | 0.00 | 1.27 | 0.43 | 99 | 1005.0 |
| 20260505215637 | 10 | 11 | 4.8 | 6.4 | 0.00 | 1.17 | 0.33 | 99 | 1005.4 |